Location: Marsån
(66.4167°N, 22.2833°E)
Time: 10:22:31
(UTC+00:00)

Ariane Rocket - Pass Details

Date: 24 February 2024
Orbit: 757 x 768 km, 98.5° (Epoch: 15 April)

Event Time Altitude Azimuth Distance (km) Brightness Sun altitude
Exits shadow 16:49:06 12° 89° (E) 2,200 4.7 -9.2°
Maximum altitude 16:52:56 27° 36° (NE) 1,462 4.1 -9.5°
Drops below altitude 10° 16:57:09 10° 340° (NNW) 2,322 5.7 -10.0°
Sets 16:59:45 0° 329° (NNW) 3,249 6.7 -10.2°
